Location: Newark
(22.3060°N, 114.2134°E)
Time: 18:29:54
(UTC+00:00)

Vanguard 2 - Pass Details

Date: 08 August 2021
Orbit: 553 x 2937 km, 32.9° (Epoch: 26 September)

Event Time Altitude Azimuth Distance (km) Brightness Sun altitude
Rises 00:21:03 0° 293° (WNW) 3,021 10.1 31.6°
Reaches altitude 10° 00:23:02 10° 291° (WNW) 2,257 9.6 32.0°
Maximum altitude 00:28:13 72° 207° (SSW) 1,029 8.6 33.2°
Drops below altitude 10° 00:36:45 10° 124° (SE) 3,622 11.8 35.2°
Sets 00:40:43 0° 123° (ESE) 5,012 12.3 36.1°
